owner,sensor,date,latitude,longitude,relative_humidity,qcFlag 
DISL,ioos:station:DISL:MBLA:1,2012-10-01T00:00:00Z,30.4367,-88.0117,77.38,1111122 
DISL,ioos:station:DISL:MBLA:1,2012-10-01T00:30:00Z,30.4367,-88.0117,78.7,1111122 
DISL,ioos:station:DISL:MBLA:1,2012-10-01T01:00:00Z,30.4367,-88.0117,80.3,1111122 
DISL,ioos:station:DISL:MBLA:1,2012-10-01T01:30:00Z,30.4367,-88.0117,83.2,1111122 
DISL,ioos:station:DISL:MBLA:1,2012-10-01T02:00:00Z,30.4367,-88.0117,81.5,1111122 
DISL,ioos:station:DISL:MBLA:1,2012-10-01T02:30:00Z,30.4367,-88.0117,79.25,1111122 
DISL,ioos:station:DISL:MBLA:1,2012-10-01T03:00:00Z,30.4367,-88.0117,82.9,1111122 
DISL,ioos:station:DISL:MBLA:1,2012-10-01T03:30:00Z,30.4367,-88.0117,81.0,1111122 
DISL,ioos:station:DISL:MBLA:1,2012-10-01T04:00:00Z,30.4367,-88.0117,80.5,1111122 
DISL,ioos:station:DISL:MBLA:1,2012-10-01T04:30:00Z,30.4367,-88.0117,80.5,1111122 
DISL,ioos:station:DISL:MBLA:1,2012-10-01T05:00:00Z,30.4367,-88.0117,79.86,1111122 
DISL,ioos:station:DISL:MBLA:1,2012-10-01T05:30:00Z,30.4367,-88.0117,81.4,1111122 
DISL,ioos:station:DISL:MBLA:1,2012-10-01T06:00:00Z,30.4367,-88.0117,84.9,1111122 
DISL,ioos:station:DISL:MBLA:1,2012-10-01T06:30:00Z,30.4367,-88.0117,82.5,1111122 
DISL,ioos:station:DISL:MBLA:1,2012-10-01T07:00:00Z,30.4367,-88.0117,81.7,1111122 
DISL,ioos:station:DISL:MBLA:1,2012-10-01T07:30:00Z,30.4367,-88.0117,81.0,1111122 
DISL,ioos:station:DISL:MBLA:1,2012-10-01T08:00:00Z,30.4367,-88.0117,80.5,1111122 
DISL,ioos:station:DISL:MBLA:1,2012-10-01T08:30:00Z,30.4367,-88.0117,74.99,1111122 
DISL,ioos:station:DISL:MBLA:1,2012-10-01T09:00:00Z,30.4367,-88.0117,77.02,1111122 
DISL,ioos:station:DISL:MBLA:1,2012-10-01T09:30:00Z,30.4367,-88.0117,81.5,1111122 
DISL,ioos:station:DISL:MBLA:1,2012-10-01T10:00:00Z,30.4367,-88.0117,79.46,1111122 
DISL,ioos:station:DISL:MBLA:1,2012-10-01T10:30:00Z,30.4367,-88.0117,79.63,1111122 
DISL,ioos:station:DISL:MBLA:1,2012-10-01T11:00:00Z,30.4367,-88.0117,79.39,1111122 
DISL,ioos:station:DISL:MBLA:1,2012-10-01T11:30:00Z,30.4367,-88.0117,74.07,1111122 
DISL,ioos:station:DISL:MBLA:1,2012-10-01T12:00:00Z,30.4367,-88.0117,72.68,1111122 
DISL,ioos:station:DISL:MBLA:1,2012-10-01T12:30:00Z,30.4367,-88.0117,77.73,1111122 
DISL,ioos:station:DISL:MBLA:1,2012-10-01T13:00:00Z,30.4367,-88.0117,76.0,1111122 
DISL,ioos:station:DISL:MBLA:1,2012-10-01T13:30:00Z,30.4367,-88.0117,78.98,1111122 
DISL,ioos:station:DISL:MBLA:1,2012-10-01T14:00:00Z,30.4367,-88.0117,76.51,1111122 
DISL,ioos:station:DISL:MBLA:1,2012-10-01T14:30:00Z,30.4367,-88.0117,73.09,1111122 
DISL,ioos:station:DISL:MBLA:1,2012-10-01T15:00:00Z,30.4367,-88.0117,77.36,1111122 
DISL,ioos:station:DISL:MBLA:1,2012-10-01T15:30:00Z,30.4367,-88.0117,75.22,1111122 
DISL,ioos:station:DISL:MBLA:1,2012-10-01T16:00:00Z,30.4367,-88.0117,72.45,1111122 
DISL,ioos:station:DISL:MBLA:1,2012-10-01T16:30:00Z,30.4367,-88.0117,72.04,1111122 
DISL,ioos:station:DISL:MBLA:1,2012-10-01T17:00:00Z,30.4367,-88.0117,71.6,1111122 
DISL,ioos:station:DISL:MBLA:1,2012-10-01T17:30:00Z,30.4367,-88.0117,70.89,1111122 
DISL,ioos:station:DISL:MBLA:1,2012-10-01T18:00:00Z,30.4367,-88.0117,71.67,1111122 
DISL,ioos:station:DISL:MBLA:1,2012-10-01T18:30:00Z,30.4367,-88.0117,71.74,1111122 
DISL,ioos:station:DISL:MBLA:1,2012-10-01T19:00:00Z,30.4367,-88.0117,70.65,1111122 
DISL,ioos:station:DISL:MBLA:1,2012-10-01T19:30:00Z,30.4367,-88.0117,74.55,1111122 
DISL,ioos:station:DISL:MBLA:1,2012-10-01T20:00:00Z,30.4367,-88.0117,73.06,1111122 
DISL,ioos:station:DISL:MBLA:1,2012-10-01T20:30:00Z,30.4367,-88.0117,69.81,1111122 
DISL,ioos:station:DISL:MBLA:1,2012-10-01T21:00:00Z,30.4367,-88.0117,73.77,1111122 
DISL,ioos:station:DISL:MBLA:1,2012-10-01T22:00:00Z,30.4367,-88.0117,71.51,1111122 
DISL,ioos:station:DISL:MBLA:1,2012-10-01T22:30:00Z,30.4367,-88.0117,69.52,1111122 
DISL,ioos:station:DISL:MBLA:1,2012-10-01T23:00:00Z,30.4367,-88.0117,68.0,1111122 
DISL,ioos:station:DISL:MBLA:1,2012-10-01T23:30:00Z,30.4367,-88.0117,69.42,1111122 
DISL,ioos:station:DISL:MBLA:1,2012-10-02T00:00:00Z,30.4367,-88.0117,74.54,1111122 
DISL,ioos:station:DISL:MBLA:1,2012-10-02T00:30:00Z,30.4367,-88.0117,77.62,1111122 
DISL,ioos:station:DISL:MBLA:1,2012-10-02T01:00:00Z,30.4367,-88.0117,78.16,1111122 
DISL,ioos:station:DISL:MBLA:1,2012-10-02T01:30:00Z,30.4367,-88.0117,79.83,1111122 
DISL,ioos:station:DISL:MBLA:1,2012-10-02T02:00:00Z,30.4367,-88.0117,79.29,1111122 
DISL,ioos:station:DISL:MBLA:1,2012-10-02T02:30:00Z,30.4367,-88.0117,81.8,1111122 
DISL,ioos:station:DISL:MBLA:1,2012-10-02T03:00:00Z,30.4367,-88.0117,79.9,1111122 
DISL,ioos:station:DISL:MBLA:1,2012-10-02T03:30:00Z,30.4367,-88.0117,82.3,1111122 
DISL,ioos:station:DISL:MBLA:1,2012-10-02T04:00:00Z,30.4367,-88.0117,80.6,1111122 
DISL,ioos:station:DISL:MBLA:1,2012-10-02T04:30:00Z,30.4367,-88.0117,80.5,1111122 
DISL,ioos:station:DISL:MBLA:1,2012-10-02T05:00:00Z,30.4367,-88.0117,82.0,1111122 
DISL,ioos:station:DISL:MBLA:1,2012-10-02T05:30:00Z,30.4367,-88.0117,81.3,1111122 
DISL,ioos:station:DISL:MBLA:1,2012-10-02T06:00:00Z,30.4367,-88.0117,80.7,1111122 
DISL,ioos:station:DISL:MBLA:1,2012-10-02T06:30:00Z,30.4367,-88.0117,80.8,1111122 
DISL,ioos:station:DISL:MBLA:1,2012-10-02T07:00:00Z,30.4367,-88.0117,81.6,1111122 
DISL,ioos:station:DISL:MBLA:1,2012-10-02T07:30:00Z,30.4367,-88.0117,82.4,1111122 
DISL,ioos:station:DISL:MBLA:1,2012-10-02T08:00:00Z,30.4367,-88.0117,81.5,1111122 
DISL,ioos:station:DISL:MBLA:1,2012-10-02T08:30:00Z,30.4367,-88.0117,82.8,1111122 
DISL,ioos:station:DISL:MBLA:1,2012-10-02T09:00:00Z,30.4367,-88.0117,84.2,1111122 
DISL,ioos:station:DISL:MBLA:1,2012-10-02T09:30:00Z,30.4367,-88.0117,83.0,1111122 
DISL,ioos:station:DISL:MBLA:1,2012-10-02T10:00:00Z,30.4367,-88.0117,84.1,1111122 
DISL,ioos:station:DISL:MBLA:1,2012-10-02T10:30:00Z,30.4367,-88.0117,83.9,1111122 
DISL,ioos:station:DISL:MBLA:1,2012-10-02T11:00:00Z,30.4367,-88.0117,83.5,1111122 
DISL,ioos:station:DISL:MBLA:1,2012-10-02T11:30:00Z,30.4367,-88.0117,83.1,1111122 
DISL,ioos:station:DISL:MBLA:1,2012-10-02T12:00:00Z,30.4367,-88.0117,84.6,1111122 
DISL,ioos:station:DISL:MBLA:1,2012-10-02T12:30:00Z,30.4367,-88.0117,84.9,1111122 
DISL,ioos:station:DISL:MBLA:1,2012-10-02T13:00:00Z,30.4367,-88.0117,79.99,1111122 
DISL,ioos:station:DISL:MBLA:1,2012-10-02T13:30:00Z,30.4367,-88.0117,79.48,1111122 
DISL,ioos:station:DISL:MBLA:1,2012-10-02T14:00:00Z,30.4367,-88.0117,77.61,1111122 
DISL,ioos:station:DISL:MBLA:1,2012-10-02T14:30:00Z,30.4367,-88.0117,73.46,1111122 
DISL,ioos:station:DISL:MBLA:1,2012-10-02T15:00:00Z,30.4367,-88.0117,75.83,1111122 
DISL,ioos:station:DISL:MBLA:1,2012-10-02T15:30:00Z,30.4367,-88.0117,61.43,1111122 
DISL,ioos:station:DISL:MBLA:1,2012-10-02T16:00:00Z,30.4367,-88.0117,56.64,1111122 
DISL,ioos:station:DISL:MBLA:1,2012-10-02T16:30:00Z,30.4367,-88.0117,55.07,1111122 
DISL,ioos:station:DISL:MBLA:1,2012-10-02T17:00:00Z,30.4367,-88.0117,52.43,1111122 
DISL,ioos:station:DISL:MBLA:1,2012-10-02T17:30:00Z,30.4367,-88.0117,51.41,1111122 
DISL,ioos:station:DISL:MBLA:1,2012-10-02T18:00:00Z,30.4367,-88.0117,50.49,1111122 
DISL,ioos:station:DISL:MBLA:1,2012-10-02T18:30:00Z,30.4367,-88.0117,46.73,1111122 
DISL,ioos:station:DISL:MBLA:1,2012-10-02T19:00:00Z,30.4367,-88.0117,46.62,1111122 
DISL,ioos:station:DISL:MBLA:1,2012-10-02T19:30:00Z,30.4367,-88.0117,46.01,1111122 
DISL,ioos:station:DISL:MBLA:1,2012-10-02T20:00:00Z,30.4367,-88.0117,44.63,1111122 
DISL,ioos:station:DISL:MBLA:1,2012-10-02T20:30:00Z,30.4367,-88.0117,43.03,1111122 
DISL,ioos:station:DISL:MBLA:1,2012-10-02T21:00:00Z,30.4367,-88.0117,40.87,1111122 
DISL,ioos:station:DISL:MBLA:1,2012-10-02T21:30:00Z,30.4367,-88.0117,41.81,1111122 
DISL,ioos:station:DISL:MBLA:1,2012-10-02T22:00:00Z,30.4367,-88.0117,50.68,1111122 
DISL,ioos:station:DISL:MBLA:1,2012-10-02T22:30:00Z,30.4367,-88.0117,57.59,1111122 
DISL,ioos:station:DISL:MBLA:1,2012-10-02T23:00:00Z,30.4367,-88.0117,60.51,1111122 
DISL,ioos:station:DISL:MBLA:1,2012-10-02T23:30:00Z,30.4367,-88.0117,61.1,1111122 
DISL,ioos:station:DISL:MBLA:1,2012-10-03T00:00:00Z,30.4367,-88.0117,63.23,1111122 
DISL,ioos:station:DISL:MBLA:1,2012-10-03T00:30:00Z,30.4367,-88.0117,66.05,1111122 
DISL,ioos:station:DISL:MBLA:1,2012-10-03T01:00:00Z,30.4367,-88.0117,61.71,1111122 
DISL,ioos:station:DISL:MBLA:1,2012-10-03T01:30:00Z,30.4367,-88.0117,67.27,1111122 
DISL,ioos:station:DISL:MBLA:1,2012-10-03T02:00:00Z,30.4367,-88.0117,61.93,1111122 
DISL,ioos:station:DISL:MBLA:1,2012-10-03T02:30:00Z,30.4367,-88.0117,63.69,1111122 
DISL,ioos:station:DISL:MBLA:1,2012-10-03T03:00:00Z,30.4367,-88.0117,61.73,1111122 
DISL,ioos:station:DISL:MBLA:1,2012-10-03T03:30:00Z,30.4367,-88.0117,64.68,1111122 
DISL,ioos:station:DISL:MBLA:1,2012-10-03T04:00:00Z,30.4367,-88.0117,64.1,1111122 
DISL,ioos:station:DISL:MBLA:1,2012-10-03T04:30:00Z,30.4367,-88.0117,65.76,1111122 
DISL,ioos:station:DISL:MBLA:1,2012-10-03T05:00:00Z,30.4367,-88.0117,72.95,1111122 
DISL,ioos:station:DISL:MBLA:1,2012-10-03T05:30:00Z,30.4367,-88.0117,73.28,1111122 
DISL,ioos:station:DISL:MBLA:1,2012-10-03T06:00:00Z,30.4367,-88.0117,75.89,1111122 
DISL,ioos:station:DISL:MBLA:1,2012-10-03T06:30:00Z,30.4367,-88.0117,74.2,1111122 
DISL,ioos:station:DISL:MBLA:1,2012-10-03T07:00:00Z,30.4367,-88.0117,76.44,1111122 
DISL,ioos:station:DISL:MBLA:1,2012-10-03T07:30:00Z,30.4367,-88.0117,76.0,1111122 
DISL,ioos:station:DISL:MBLA:1,2012-10-03T08:00:00Z,30.4367,-88.0117,74.3,1111122 
DISL,ioos:station:DISL:MBLA:1,2012-10-03T08:30:00Z,30.4367,-88.0117,73.18,1111122 
DISL,ioos:station:DISL:MBLA:1,2012-10-03T09:00:00Z,30.4367,-88.0117,76.06,1111122 
DISL,ioos:station:DISL:MBLA:1,2012-10-03T09:30:00Z,30.4367,-88.0117,73.46,1111122 
DISL,ioos:station:DISL:MBLA:1,2012-10-03T10:00:00Z,30.4367,-88.0117,76.74,1111122 
DISL,ioos:station:DISL:MBLA:1,2012-10-03T10:30:00Z,30.4367,-88.0117,76.24,1111122 
DISL,ioos:station:DISL:MBLA:1,2012-10-03T11:00:00Z,30.4367,-88.0117,74.41,1111122 
DISL,ioos:station:DISL:MBLA:1,2012-10-03T11:30:00Z,30.4367,-88.0117,74.44,1111122 
DISL,ioos:station:DISL:MBLA:1,2012-10-03T12:00:00Z,30.4367,-88.0117,74.72,1111122 
DISL,ioos:station:DISL:MBLA:1,2012-10-03T12:30:00Z,30.4367,-88.0117,75.5,1111122 
DISL,ioos:station:DISL:MBLA:1,2012-10-03T13:00:00Z,30.4367,-88.0117,74.79,1111122 
DISL,ioos:station:DISL:MBLA:1,2012-10-03T13:30:00Z,30.4367,-88.0117,72.28,1111122 
DISL,ioos:station:DISL:MBLA:1,2012-10-03T14:00:00Z,30.4367,-88.0117,73.97,1111122 
DISL,ioos:station:DISL:MBLA:1,2012-10-03T14:30:00Z,30.4367,-88.0117,72.1,1111122 
DISL,ioos:station:DISL:MBLA:1,2012-10-03T15:00:00Z,30.4367,-88.0117,73.01,1111122 
DISL,ioos:station:DISL:MBLA:1,2012-10-03T15:30:00Z,30.4367,-88.0117,68.51,1111122 
DISL,ioos:station:DISL:MBLA:1,2012-10-03T16:00:00Z,30.4367,-88.0117,65.18,1111122 
DISL,ioos:station:DISL:MBLA:1,2012-10-03T16:30:00Z,30.4367,-88.0117,62.63,1111122 
DISL,ioos:station:DISL:MBLA:1,2012-10-03T17:00:00Z,30.4367,-88.0117,62.69,1111122 
DISL,ioos:station:DISL:MBLA:1,2012-10-03T17:30:00Z,30.4367,-88.0117,53.48,1111122 
DISL,ioos:station:DISL:MBLA:1,2012-10-03T18:00:00Z,30.4367,-88.0117,55.06,1111122 
DISL,ioos:station:DISL:MBLA:1,2012-10-03T18:30:00Z,30.4367,-88.0117,56.07,1111122 
DISL,ioos:station:DISL:MBLA:1,2012-10-03T19:00:00Z,30.4367,-88.0117,50.48,1111122 
DISL,ioos:station:DISL:MBLA:1,2012-10-03T19:30:00Z,30.4367,-88.0117,50.74,1111122 
DISL,ioos:station:DISL:MBLA:1,2012-10-03T20:00:00Z,30.4367,-88.0117,50.98,1111122 
DISL,ioos:station:DISL:MBLA:1,2012-10-03T20:30:00Z,30.4367,-88.0117,55.65,1111122 
DISL,ioos:station:DISL:MBLA:1,2012-10-03T21:00:00Z,30.4367,-88.0117,59.07,1111122 
DISL,ioos:station:DISL:MBLA:1,2012-10-03T21:30:00Z,30.4367,-88.0117,59.91,1111122 
DISL,ioos:station:DISL:MBLA:1,2012-10-03T22:00:00Z,30.4367,-88.0117,63.65,1111122 
DISL,ioos:station:DISL:MBLA:1,2012-10-03T22:30:00Z,30.4367,-88.0117,65.21,1111122 
DISL,ioos:station:DISL:MBLA:1,2012-10-03T23:00:00Z,30.4367,-88.0117,62.64,1111122 
DISL,ioos:station:DISL:MBLA:1,2012-10-03T23:30:00Z,30.4367,-88.0117,66.55,1111122 
DISL,ioos:station:DISL:MBLA:1,2012-10-04T00:00:00Z,30.4367,-88.0117,63.2,1111122 
DISL,ioos:station:DISL:MBLA:1,2012-10-04T00:30:00Z,30.4367,-88.0117,66.62,1111122 
DISL,ioos:station:DISL:MBLA:1,2012-10-04T01:00:00Z,30.4367,-88.0117,62.86,1111122 
DISL,ioos:station:DISL:MBLA:1,2012-10-04T01:30:00Z,30.4367,-88.0117,63.61,1111122 
DISL,ioos:station:DISL:MBLA:1,2012-10-04T02:00:00Z,30.4367,-88.0117,65.24,1111122 
DISL,ioos:station:DISL:MBLA:1,2012-10-04T02:30:00Z,30.4367,-88.0117,63.68,1111122 
DISL,ioos:station:DISL:MBLA:1,2012-10-04T03:00:00Z,30.4367,-88.0117,67.89,1111122 
DISL,ioos:station:DISL:MBLA:1,2012-10-04T03:30:00Z,30.4367,-88.0117,70.46,1111122 
DISL,ioos:station:DISL:MBLA:1,2012-10-04T04:00:00Z,30.4367,-88.0117,67.28,1111122 
DISL,ioos:station:DISL:MBLA:1,2012-10-04T04:30:00Z,30.4367,-88.0117,66.64,1111122 
DISL,ioos:station:DISL:MBLA:1,2012-10-04T05:00:00Z,30.4367,-88.0117,72.81,1111122 
DISL,ioos:station:DISL:MBLA:1,2012-10-04T05:30:00Z,30.4367,-88.0117,72.34,1111122 
DISL,ioos:station:DISL:MBLA:1,2012-10-04T06:00:00Z,30.4367,-88.0117,75.11,1111122 
DISL,ioos:station:DISL:MBLA:1,2012-10-04T06:30:00Z,30.4367,-88.0117,76.2,1111122 
DISL,ioos:station:DISL:MBLA:1,2012-10-04T07:00:00Z,30.4367,-88.0117,73.62,1111122 
DISL,ioos:station:DISL:MBLA:1,2012-10-04T07:30:00Z,30.4367,-88.0117,73.22,1111122 
DISL,ioos:station:DISL:MBLA:1,2012-10-04T08:00:00Z,30.4367,-88.0117,75.52,1111122 
DISL,ioos:station:DISL:MBLA:1,2012-10-04T08:30:00Z,30.4367,-88.0117,76.27,1111122 
DISL,ioos:station:DISL:MBLA:1,2012-10-04T09:00:00Z,30.4367,-88.0117,79.65,1111122 
DISL,ioos:station:DISL:MBLA:1,2012-10-04T09:30:00Z,30.4367,-88.0117,80.9,1111122 
DISL,ioos:station:DISL:MBLA:1,2012-10-04T10:00:00Z,30.4367,-88.0117,82.9,1111122 
DISL,ioos:station:DISL:MBLA:1,2012-10-04T10:30:00Z,30.4367,-88.0117,83.2,1111122 
DISL,ioos:station:DISL:MBLA:1,2012-10-04T11:00:00Z,30.4367,-88.0117,84.6,1111122 
DISL,ioos:station:DISL:MBLA:1,2012-10-04T11:30:00Z,30.4367,-88.0117,85.3,1111122 
DISL,ioos:station:DISL:MBLA:1,2012-10-04T12:00:00Z,30.4367,-88.0117,84.4,1111122 
DISL,ioos:station:DISL:MBLA:1,2012-10-04T12:30:00Z,30.4367,-88.0117,81.2,1111122 
DISL,ioos:station:DISL:MBLA:1,2012-10-04T13:00:00Z,30.4367,-88.0117,81.7,1111122 
DISL,ioos:station:DISL:MBLA:1,2012-10-04T13:30:00Z,30.4367,-88.0117,78.64,1111122 
DISL,ioos:station:DISL:MBLA:1,2012-10-04T14:00:00Z,30.4367,-88.0117,76.88,1111122 
DISL,ioos:station:DISL:MBLA:1,2012-10-04T14:30:00Z,30.4367,-88.0117,76.5,1111122 
DISL,ioos:station:DISL:MBLA:1,2012-10-04T15:00:00Z,30.4367,-88.0117,70.01,1111122 
DISL,ioos:station:DISL:MBLA:1,2012-10-04T15:30:00Z,30.4367,-88.0117,67.71,1111122 
DISL,ioos:station:DISL:MBLA:1,2012-10-04T16:00:00Z,30.4367,-88.0117,66.82,1111122 
DISL,ioos:station:DISL:MBLA:1,2012-10-04T16:30:00Z,30.4367,-88.0117,62.49,1111122 
DISL,ioos:station:DISL:MBLA:1,2012-10-04T17:00:00Z,30.4367,-88.0117,61.97,1111122 
DISL,ioos:station:DISL:MBLA:1,2012-10-04T17:30:00Z,30.4367,-88.0117,64.77,1111122 
DISL,ioos:station:DISL:MBLA:1,2012-10-04T18:00:00Z,30.4367,-88.0117,61.42,1111122 
DISL,ioos:station:DISL:MBLA:1,2012-10-04T18:30:00Z,30.4367,-88.0117,56.27,1111122 
DISL,ioos:station:DISL:MBLA:1,2012-10-04T19:00:00Z,30.4367,-88.0117,56.2,1111122 
DISL,ioos:station:DISL:MBLA:1,2012-10-04T19:30:00Z,30.4367,-88.0117,54.2,1111122 
DISL,ioos:station:DISL:MBLA:1,2012-10-04T20:00:00Z,30.4367,-88.0117,52.71,1111122 
DISL,ioos:station:DISL:MBLA:1,2012-10-04T20:30:00Z,30.4367,-88.0117,52.2,1111122 
DISL,ioos:station:DISL:MBLA:1,2012-10-04T21:00:00Z,30.4367,-88.0117,52.3,1111122 
DISL,ioos:station:DISL:MBLA:1,2012-10-04T21:30:00Z,30.4367,-88.0117,52.37,1111122 
DISL,ioos:station:DISL:MBLA:1,2012-10-04T22:00:00Z,30.4367,-88.0117,52.56,1111122 
DISL,ioos:station:DISL:MBLA:1,2012-10-04T22:30:00Z,30.4367,-88.0117,54.22,1111122 
DISL,ioos:station:DISL:MBLA:1,2012-10-04T23:00:00Z,30.4367,-88.0117,55.1,1111122 
DISL,ioos:station:DISL:MBLA:1,2012-10-04T23:30:00Z,30.4367,-88.0117,61.97,1111122 
DISL,ioos:station:DISL:MBLA:1,2012-10-05T00:00:00Z,30.4367,-88.0117,68.38,1111122 
DISL,ioos:station:DISL:MBLA:1,2012-10-05T00:30:00Z,30.4367,-88.0117,74.18,1111122 
DISL,ioos:station:DISL:MBLA:1,2012-10-05T01:00:00Z,30.4367,-88.0117,74.91,1111122 
DISL,ioos:station:DISL:MBLA:1,2012-10-05T01:30:00Z,30.4367,-88.0117,73.29,1111122 
DISL,ioos:station:DISL:MBLA:1,2012-10-05T02:00:00Z,30.4367,-88.0117,75.56,1111122 
DISL,ioos:station:DISL:MBLA:1,2012-10-05T02:30:00Z,30.4367,-88.0117,75.7,1111122 
DISL,ioos:station:DISL:MBLA:1,2012-10-05T03:00:00Z,30.4367,-88.0117,78.61,1111122 
DISL,ioos:station:DISL:MBLA:1,2012-10-05T03:30:00Z,30.4367,-88.0117,80.9,1111122 
DISL,ioos:station:DISL:MBLA:1,2012-10-05T04:00:00Z,30.4367,-88.0117,68.86,1111122 
DISL,ioos:station:DISL:MBLA:1,2012-10-05T04:30:00Z,30.4367,-88.0117,66.99,1111122 
DISL,ioos:station:DISL:MBLA:1,2012-10-05T05:00:00Z,30.4367,-88.0117,70.76,1111122 
DISL,ioos:station:DISL:MBLA:1,2012-10-05T05:30:00Z,30.4367,-88.0117,71.84,1111122 
DISL,ioos:station:DISL:MBLA:1,2012-10-05T06:00:00Z,30.4367,-88.0117,68.98,1111122 
DISL,ioos:station:DISL:MBLA:1,2012-10-05T06:30:00Z,30.4367,-88.0117,68.1,1111122 
DISL,ioos:station:DISL:MBLA:1,2012-10-05T07:00:00Z,30.4367,-88.0117,70.24,1111122 
DISL,ioos:station:DISL:MBLA:1,2012-10-05T07:30:00Z,30.4367,-88.0117,70.61,1111122 
DISL,ioos:station:DISL:MBLA:1,2012-10-05T08:00:00Z,30.4367,-88.0117,73.62,1111122 
DISL,ioos:station:DISL:MBLA:1,2012-10-05T08:30:00Z,30.4367,-88.0117,75.96,1111122 
DISL,ioos:station:DISL:MBLA:1,2012-10-05T09:00:00Z,30.4367,-88.0117,76.91,1111122 
DISL,ioos:station:DISL:MBLA:1,2012-10-05T09:30:00Z,30.4367,-88.0117,78.77,1111122 
DISL,ioos:station:DISL:MBLA:1,2012-10-05T10:00:00Z,30.4367,-88.0117,81.0,1111122 
DISL,ioos:station:DISL:MBLA:1,2012-10-05T10:30:00Z,30.4367,-88.0117,82.3,1111122 
DISL,ioos:station:DISL:MBLA:1,2012-10-05T11:00:00Z,30.4367,-88.0117,82.8,1111122 
DISL,ioos:station:DISL:MBLA:1,2012-10-05T11:30:00Z,30.4367,-88.0117,85.3,1111122 
DISL,ioos:station:DISL:MBLA:1,2012-10-05T12:00:00Z,30.4367,-88.0117,85.1,1111122 
DISL,ioos:station:DISL:MBLA:1,2012-10-05T12:30:00Z,30.4367,-88.0117,84.1,1111122 
DISL,ioos:station:DISL:MBLA:1,2012-10-05T13:00:00Z,30.4367,-88.0117,77.52,1111122 
DISL,ioos:station:DISL:MBLA:1,2012-10-05T13:30:00Z,30.4367,-88.0117,76.54,1111122 
DISL,ioos:station:DISL:MBLA:1,2012-10-05T14:00:00Z,30.4367,-88.0117,74.74,1111122 
DISL,ioos:station:DISL:MBLA:1,2012-10-05T14:30:00Z,30.4367,-88.0117,73.87,1111122 
DISL,ioos:station:DISL:MBLA:1,2012-10-05T15:00:00Z,30.4367,-88.0117,71.6,1111122 
DISL,ioos:station:DISL:MBLA:1,2012-10-05T15:30:00Z,30.4367,-88.0117,68.99,1111122 
DISL,ioos:station:DISL:MBLA:1,2012-10-05T16:00:00Z,30.4367,-88.0117,68.01,1111122 
DISL,ioos:station:DISL:MBLA:1,2012-10-05T16:30:00Z,30.4367,-88.0117,67.09,1111122 
DISL,ioos:station:DISL:MBLA:1,2012-10-05T17:00:00Z,30.4367,-88.0117,65.59,1111122 
DISL,ioos:station:DISL:MBLA:1,2012-10-05T17:30:00Z,30.4367,-88.0117,61.11,1111122 
DISL,ioos:station:DISL:MBLA:1,2012-10-05T18:00:00Z,30.4367,-88.0117,62.64,1111122 
DISL,ioos:station:DISL:MBLA:1,2012-10-05T18:30:00Z,30.4367,-88.0117,58.91,1111122 
DISL,ioos:station:DISL:MBLA:1,2012-10-05T19:00:00Z,30.4367,-88.0117,59.06,1111122 
DISL,ioos:station:DISL:MBLA:1,2012-10-05T19:30:00Z,30.4367,-88.0117,64.85,1111122 
DISL,ioos:station:DISL:MBLA:1,2012-10-05T20:00:00Z,30.4367,-88.0117,66.41,1111122 
DISL,ioos:station:DISL:MBLA:1,2012-10-05T20:30:00Z,30.4367,-88.0117,67.64,1111122 
DISL,ioos:station:DISL:MBLA:1,2012-10-05T21:00:00Z,30.4367,-88.0117,68.35,1111122 
DISL,ioos:station:DISL:MBLA:1,2012-10-05T21:30:00Z,30.4367,-88.0117,71.74,1111122 
DISL,ioos:station:DISL:MBLA:1,2012-10-05T22:00:00Z,30.4367,-88.0117,73.23,1111122 
DISL,ioos:station:DISL:MBLA:1,2012-10-05T22:30:00Z,30.4367,-88.0117,74.62,1111122 
DISL,ioos:station:DISL:MBLA:1,2012-10-05T23:00:00Z,30.4367,-88.0117,75.33,1111122 
DISL,ioos:station:DISL:MBLA:1,2012-10-05T23:30:00Z,30.4367,-88.0117,77.06,1111122 
DISL,ioos:station:DISL:MBLA:1,2012-10-06T00:00:00Z,30.4367,-88.0117,77.58,1111122 
DISL,ioos:station:DISL:MBLA:1,2012-10-06T00:30:00Z,30.4367,-88.0117,77.05,1111122 
DISL,ioos:station:DISL:MBLA:1,2012-10-06T01:00:00Z,30.4367,-88.0117,79.12,1111122 
DISL,ioos:station:DISL:MBLA:1,2012-10-06T01:30:00Z,30.4367,-88.0117,79.53,1111122 
DISL,ioos:station:DISL:MBLA:1,2012-10-06T02:00:00Z,30.4367,-88.0117,79.19,1111122 
DISL,ioos:station:DISL:MBLA:1,2012-10-06T02:30:00Z,30.4367,-88.0117,80.8,1111122 
DISL,ioos:station:DISL:MBLA:1,2012-10-06T03:00:00Z,30.4367,-88.0117,83.1,1111122 
DISL,ioos:station:DISL:MBLA:1,2012-10-06T03:30:00Z,30.4367,-88.0117,84.0,1111122 
DISL,ioos:station:DISL:MBLA:1,2012-10-06T04:00:00Z,30.4367,-88.0117,83.5,1111122 
DISL,ioos:station:DISL:MBLA:1,2012-10-06T04:30:00Z,30.4367,-88.0117,84.2,1111122 
DISL,ioos:station:DISL:MBLA:1,2012-10-06T05:00:00Z,30.4367,-88.0117,85.1,1111122 
DISL,ioos:station:DISL:MBLA:1,2012-10-06T05:30:00Z,30.4367,-88.0117,85.4,1111122 
DISL,ioos:station:DISL:MBLA:1,2012-10-06T06:00:00Z,30.4367,-88.0117,86.2,1111122 
DISL,ioos:station:DISL:MBLA:1,2012-10-06T06:30:00Z,30.4367,-88.0117,86.2,1111122 
DISL,ioos:station:DISL:MBLA:1,2012-10-06T07:00:00Z,30.4367,-88.0117,85.7,1111122 
DISL,ioos:station:DISL:MBLA:1,2012-10-06T07:30:00Z,30.4367,-88.0117,85.5,1111122 
DISL,ioos:station:DISL:MBLA:1,2012-10-06T08:00:00Z,30.4367,-88.0117,86.7,1111122 
DISL,ioos:station:DISL:MBLA:1,2012-10-06T08:30:00Z,30.4367,-88.0117,85.9,1111122 
DISL,ioos:station:DISL:MBLA:1,2012-10-06T09:00:00Z,30.4367,-88.0117,86.0,1111122 
DISL,ioos:station:DISL:MBLA:1,2012-10-06T09:30:00Z,30.4367,-88.0117,85.7,1111122 
DISL,ioos:station:DISL:MBLA:1,2012-10-06T10:00:00Z,30.4367,-88.0117,84.6,1111122 
DISL,ioos:station:DISL:MBLA:1,2012-10-06T10:30:00Z,30.4367,-88.0117,82.9,1111122 
DISL,ioos:station:DISL:MBLA:1,2012-10-06T11:00:00Z,30.4367,-88.0117,81.1,1111122 
DISL,ioos:station:DISL:MBLA:1,2012-10-06T11:30:00Z,30.4367,-88.0117,80.3,1111122 
DISL,ioos:station:DISL:MBLA:1,2012-10-06T12:00:00Z,30.4367,-88.0117,79.65,1111122 
DISL,ioos:station:DISL:MBLA:1,2012-10-06T12:30:00Z,30.4367,-88.0117,72.57,1111122 
DISL,ioos:station:DISL:MBLA:1,2012-10-06T13:00:00Z,30.4367,-88.0117,70.74,1111122 
DISL,ioos:station:DISL:MBLA:1,2012-10-06T13:30:00Z,30.4367,-88.0117,71.33,1111122 
DISL,ioos:station:DISL:MBLA:1,2012-10-06T14:00:00Z,30.4367,-88.0117,65.5,1111122 
DISL,ioos:station:DISL:MBLA:1,2012-10-06T14:30:00Z,30.4367,-88.0117,66.96,1111122 
DISL,ioos:station:DISL:MBLA:1,2012-10-06T15:00:00Z,30.4367,-88.0117,66.35,1111122 
DISL,ioos:station:DISL:MBLA:1,2012-10-06T15:30:00Z,30.4367,-88.0117,67.22,1111122 
DISL,ioos:station:DISL:MBLA:1,2012-10-06T16:00:00Z,30.4367,-88.0117,67.28,1111122 
DISL,ioos:station:DISL:MBLA:1,2012-10-06T16:30:00Z,30.4367,-88.0117,67.34,1111122 
DISL,ioos:station:DISL:MBLA:1,2012-10-06T17:00:00Z,30.4367,-88.0117,60.91,1111122 
DISL,ioos:station:DISL:MBLA:1,2012-10-06T17:30:00Z,30.4367,-88.0117,57.59,1111122 
DISL,ioos:station:DISL:MBLA:1,2012-10-06T18:00:00Z,30.4367,-88.0117,50.35,1111122 
DISL,ioos:station:DISL:MBLA:1,2012-10-06T18:30:00Z,30.4367,-88.0117,46.72,1111122 
DISL,ioos:station:DISL:MBLA:1,2012-10-06T19:00:00Z,30.4367,-88.0117,44.07,1111122 
DISL,ioos:station:DISL:MBLA:1,2012-10-06T19:30:00Z,30.4367,-88.0117,46.13,1111122 
DISL,ioos:station:DISL:MBLA:1,2012-10-06T20:00:00Z,30.4367,-88.0117,43.9,1111122 
DISL,ioos:station:DISL:MBLA:1,2012-10-06T20:30:00Z,30.4367,-88.0117,41.6,1111122 
DISL,ioos:station:DISL:MBLA:1,2012-10-06T21:00:00Z,30.4367,-88.0117,39.06,1111122 
DISL,ioos:station:DISL:MBLA:1,2012-10-06T21:30:00Z,30.4367,-88.0117,37.4,1111122 
DISL,ioos:station:DISL:MBLA:1,2012-10-06T22:00:00Z,30.4367,-88.0117,39.09,1111122 
DISL,ioos:station:DISL:MBLA:1,2012-10-06T22:30:00Z,30.4367,-88.0117,39.83,1111122 
DISL,ioos:station:DISL:MBLA:1,2012-10-06T23:00:00Z,30.4367,-88.0117,38.38,1111122 
DISL,ioos:station:DISL:MBLA:1,2012-10-06T23:30:00Z,30.4367,-88.0117,48.33,1111122 
DISL,ioos:station:DISL:MBLA:1,2012-10-07T00:00:00Z,30.4367,-88.0117,64.75,1111122 
DISL,ioos:station:DISL:MBLA:1,2012-10-07T00:30:00Z,30.4367,-88.0117,67.14,1111122 